San Sebastian/Fu, Spain

10:53 AM CET on February 24, 2017 (GMT +0100)
San Sebastian

Weather History for LESO - May, 2013

Change the Weather History Date:

Tuesday, May 28, 2013

  Actual Average Record
Temperature  
Mean Temperature 55 °F -  
Max Temperature 59 °F 71 °F 86 °F (1999)
Min Temperature 51 °F 59 °F 51 °F (2007)
Degree Days  
Heating Degree Days 10    
Growing Degree Days 5 (Base 50)    
Moisture  
Dew Point 47 °F    
Average Humidity 79    
Maximum Humidity 88    
Minimum Humidity 59    
Precipitation  
Precipitation 0.00 in - - ()
Sea Level Pressure  
Sea Level Pressure 29.88 in    
Wind  
Wind Speed 9 mph ()    
Max Wind Speed 15 mph    
Max Gust Speed 32 mph    
Visibility 5.7 miles    
Events Rain    
Averages and records for this station are not official NWS values.
T = Trace of Precipitation, MM = Missing Value Source: Averaged Metar Reports

Daily Weather History Graph

Daily Weather History Graph

Search for Another Location

Airport or City:

Trip Planner

Search our weather history database for the weather conditions in past years. The results will help you decide how hot, cold, wet, or windy it might be!

Date:

Astronomy

May. 28, 2013 Rise Set
Actual Time 6:31 AM CEST 9:37 PM CEST
Civil Twilight 5:57 AM CEST 10:12 PM CEST
Nautical Twilight 5:13 AM CEST 10:56 PM CEST
Astronomical Twilight 4:20 AM CEST 11:49 PM CEST
Moon 12:02 AM CEST (5/28) 10:05 AM CEST (5/28)
Length of Visible Light 16h 14m
Length of Day
15h 05m
Waning Gibbous, 85% of the Moon is Illuminated
May 28
Waning Gibbous
May 31
Last Quarter
Jun 8
New
Jun 16
First Quarter
Jun 23
Full

Hourly Weather History & Observations

Time (CEST) Temp. Dew Point Humidity Pressure Visibility Wind Dir Wind Speed Gust Speed Precip Events Conditions
5:30 AM 55.4 °F 51.8 °F 88% 29.77 in 5.0 mi SSW 4.6 mph - N/A Rain Light Rain
6:00 AM 53.6 °F 50.0 °F 88% 29.80 in 3.1 mi Variable 12.7 mph 28.8 mph N/A Rain Heavy Rain
6:30 AM 53.6 °F 50.0 °F 88% 29.80 in 6.2 mi West 11.5 mph 28.8 mph N/A Rain Light Rain
7:00 AM 53.6 °F 48.2 °F 82% 29.80 in 6.2 mi SW 10.4 mph - N/A Rain Light Rain
7:30 AM 53.6 °F 50.0 °F 88% 29.83 in 6.2 mi Variable 6.9 mph 23.0 mph N/A Rain Light Rain
8:00 AM 51.8 °F 48.2 °F 88% 29.83 in 6.2 mi SSW 11.5 mph - N/A Rain Light Rain
8:30 AM 51.8 °F 48.2 °F 88% 29.83 in 3.1 mi SW 9.2 mph - N/A Rain Rain
9:00 AM 51.8 °F 48.2 °F 88% 29.83 in 6.2 mi SSW 9.2 mph - N/A Rain Light Rain
9:30 AM 51.8 °F 48.2 °F 88% 29.86 in 6.2 mi SSW 10.4 mph - N/A Rain Light Rain
10:00 AM 51.8 °F 48.2 °F 88% 29.86 in 6.2 mi SSW 10.4 mph - N/A   Mostly Cloudy
10:30 AM 51.8 °F 48.2 °F 88% 29.86 in 4.3 mi Variable 4.6 mph - N/A Rain Light Rain
11:00 AM 53.6 °F 50.0 °F 88% 29.86 in 6.2 mi SW 9.2 mph - N/A   Mostly Cloudy
11:30 AM 51.8 °F 46.4 °F 82% 29.89 in 4.3 mi NW 11.5 mph 27.6 mph N/A Rain Light Rain Showers
12:00 PM 53.6 °F 48.2 °F 82% 29.89 in 6.2 mi SW 10.4 mph 23.0 mph N/A   Mostly Cloudy
12:30 PM 53.6 °F 48.2 °F 82% 29.89 in 6.2 mi SW 9.2 mph - N/A   Mostly Cloudy
1:00 PM 55.4 °F 48.2 °F 77% 29.89 in 6.2 mi SW 10.4 mph 21.9 mph N/A   Mostly Cloudy
1:30 PM 57.2 °F 46.4 °F 67% 29.89 in 6.2 mi WSW 13.8 mph 28.8 mph N/A   Mostly Cloudy
2:00 PM 51.8 °F 44.6 °F 76% 29.89 in 6.2 mi WSW 13.8 mph 28.8 mph N/A Rain Light Rain
2:30 PM 55.4 °F 48.2 °F 77% 29.89 in 6.2 mi SW 9.2 mph - N/A Rain Light Rain
3:00 PM 57.2 °F 48.2 °F 72% 29.89 in 6.2 mi WSW 8.1 mph - N/A   Mostly Cloudy
3:30 PM 57.2 °F 48.2 °F 72% 29.89 in 6.2 mi Variable 9.2 mph 26.5 mph N/A   Mostly Cloudy
4:00 PM 59.0 °F 44.6 °F 59% 29.92 in 6.2 mi Variable 9.2 mph 21.9 mph N/A   Mostly Cloudy
4:30 PM 57.2 °F 44.6 °F 63% 29.92 in 6.2 mi Variable 15.0 mph 32.2 mph N/A   Mostly Cloudy
5:00 PM 57.2 °F 46.4 °F 67% 29.92 in 6.2 mi West 12.7 mph - N/A   Mostly Cloudy
5:30 PM 59.0 °F 46.4 °F 63% 29.92 in 6.2 mi Variable 10.4 mph 31.1 mph N/A   Mostly Cloudy
6:00 PM 55.4 °F 44.6 °F 67% 29.92 in 6.2 mi Variable 9.2 mph 25.3 mph N/A   Mostly Cloudy
6:30 PM 53.6 °F 46.4 °F 77% 29.92 in 6.2 mi Variable 11.5 mph 26.5 mph N/A Rain Light Rain
7:00 PM 55.4 °F 44.6 °F 67% 29.92 in 6.2 mi SW 10.4 mph - N/A   Scattered Clouds
7:30 PM 53.6 °F 48.2 °F 82% 29.92 in 3.7 mi Variable 10.4 mph 26.5 mph N/A Rain Light Rain
8:00 PM 53.6 °F 46.4 °F 77% 29.92 in 6.2 mi WSW 6.9 mph - N/A   Mostly Cloudy
8:30 PM 53.6 °F 46.4 °F 77% 29.92 in 6.2 mi SW 13.8 mph - N/A   Mostly Cloudy
9:00 PM 51.8 °F 46.4 °F 82% 29.92 in 4.3 mi SW 8.1 mph - N/A Rain Light Rain Showers
9:30 PM 53.6 °F 46.4 °F 77% 29.92 in 6.2 mi Variable 3.5 mph 17.3 mph N/A   Mostly Cloudy